Change the Weather History Date:

Saturday, October 26, 2013

  Actual Average Record
Temperature  
Mean Temperature 46 °F -  
Max Temperature 52 °F 54 °F 75 °F (1989)
Min Temperature 38 °F 33 °F 18 °F (1990)
Degree Days  
Heating Degree Days 20    
Moisture  
Dew Point 35 °F    
Average Humidity 69    
Maximum Humidity 83    
Minimum Humidity 50    
Precipitation  
Precipitation 0.14 in - - ()
Sea Level Pressure  
Sea Level Pressure 29.80 in    
Wind  
Wind Speed 15 mph (West)    
Max Wind Speed 26 mph    
Max Gust Speed 44 mph    
Visibility 9 miles    
Events Rain    
Averages and records for this station are not official NWS values.
T = Trace of Precipitation, MM = Missing Value Source: NWS Daily Summary

Daily Weather History Graph

Daily Weather History Graph

Search for Another Location

Airport or City:

Trip Planner

Search our weather history database for the weather conditions in past years. The results will help you decide how hot, cold, wet, or windy it might be!

Date:

Astronomy

Oct. 26, 2013 Rise Set
Actual Time 8:10 AM EDT 6:40 PM EDT
Civil Twilight 7:40 AM EDT 7:10 PM EDT
Nautical Twilight 7:07 AM EDT 7:43 PM EDT
Astronomical Twilight 6:33 AM EDT 8:17 PM EDT
Moon No Moon Rise 2:27 PM EDT (10/26)
Length of Visible Light 11h 29m
Length of Day
10h 30m
Waning Gibbous, 53% of the Moon is Illuminated
Oct 26
Waning Gibbous
Oct 26
Last Quarter
Nov 3
New
Nov 10
First Quarter
Nov 17
Full

Hourly Weather History & Observations

Time (EDT) Temp. Windchill Dew Point Humidity Pressure Visibility Wind Dir Wind Speed Gust Speed Precip Events Conditions
12:15 AM 48.0 °F - 31.8 °F 54% 29.89 in 10.0 mi WSW 20.7 mph 41.4 mph N/A   Overcast
12:35 AM 47.1 °F - 32.5 °F 57% 29.87 in 10.0 mi WSW 25.3 mph 43.7 mph N/A   Unknown
12:54 AM 46.6 °F - 32.7 °F 59% 29.85 in 10.0 mi WSW 26.5 mph 39.1 mph N/A   Unknown
1:15 AM 47.7 °F - 32.0 °F 55% 29.84 in 10.0 mi SW 20.7 mph 39.1 mph N/A   Overcast
1:35 AM 48.4 °F - 31.6 °F 52% 29.82 in 10.0 mi SW 25.3 mph 40.3 mph N/A   Overcast
1:54 AM 48.9 °F - 31.3 °F 51% 29.81 in 10.0 mi WSW 25.3 mph 36.8 mph N/A   Overcast
2:15 AM 49.1 °F - 31.1 °F 50% 29.80 in 10.0 mi WSW 19.6 mph 32.2 mph N/A   Overcast
2:35 AM 49.1 °F - 30.9 °F 50% 29.79 in 10.0 mi WSW 20.7 mph 33.4 mph N/A   Overcast
2:54 AM 49.5 °F - 31.3 °F 50% 29.78 in 10.0 mi WSW 17.3 mph 40.3 mph N/A   Overcast
3:15 AM 47.5 °F - 33.3 °F 58% 29.78 in 7.0 mi WSW 25.3 mph 34.5 mph N/A Rain Light Rain
3:35 AM 46.4 °F 38.7 °F 34.7 °F 64% 29.78 in 5.0 mi WSW 20.7 mph 35.7 mph N/A Rain Light Rain
3:54 AM 45.0 °F 37.4 °F 36.1 °F 71% 29.77 in 5.0 mi WSW 18.4 mph 29.9 mph 0.01 in   Unknown
4:14 AM 44.2 °F 37.0 °F 36.9 °F 75% 29.75 in 4.0 mi SW 16.1 mph 29.9 mph 0.01 in Rain Light Rain
4:35 AM 44.2 °F 36.2 °F 36.7 °F 75% 29.74 in 10.0 mi WSW 19.6 mph 27.6 mph 0.01 in Rain Light Rain
4:55 AM 43.7 °F 36.0 °F 37.4 °F 78% 29.74 in 5.0 mi SW 17.3 mph 23.0 mph 0.03 in   Overcast
5:14 AM 43.5 °F 37.1 °F 37.4 °F 79% 29.73 in 5.0 mi SW 12.7 mph 21.9 mph 0.03 in   Unknown
5:35 AM 42.8 °F 36.6 °F 37.6 °F 82% 29.73 in 4.0 mi SW 11.5 mph 18.4 mph 0.08 in   Overcast
5:55 AM 42.8 °F 35.8 °F 37.9 °F 83% 29.72 in 4.0 mi SW 13.8 mph 19.6 mph 0.10 in   Overcast
6:14 AM 42.8 °F 36.6 °F 37.8 °F 82% 29.71 in 10.0 mi SW 11.5 mph 20.7 mph N/A Rain Rain
6:35 AM 43.5 °F 37.1 °F 37.6 °F 80% 29.71 in 10.0 mi WSW 12.7 mph 23.0 mph N/A   Overcast
6:55 AM 43.5 °F 37.5 °F 37.4 °F 79% 29.71 in 10.0 mi WSW 11.5 mph 19.6 mph N/A   Mostly Cloudy
7:14 AM 43.3 °F 37.2 °F 36.9 °F 78% 29.70 in 10.0 mi WSW 11.5 mph 16.1 mph N/A   Mostly Cloudy
7:35 AM 42.8 °F 37.0 °F 36.5 °F 78% 29.70 in 10.0 mi SW 10.4 mph 16.1 mph N/A   Scattered Clouds
7:55 AM 42.6 °F 36.8 °F 36.3 °F 78% 29.69 in 10.0 mi WSW 10.4 mph - N/A   Clear
8:15 AM 43.3 °F 37.7 °F 36.1 °F 76% 29.69 in 10.0 mi WSW 10.4 mph 16.1 mph N/A   Mostly Cloudy
8:35 AM 43.7 °F 39.1 °F 36.5 °F 76% 29.70 in 10.0 mi WSW 8.1 mph - N/A   Overcast
8:54 AM 44.2 °F 39.2 °F 36.5 °F 74% 29.70 in 10.0 mi WSW 9.2 mph - N/A   Overcast
9:15 AM 44.4 °F 39.5 °F 36.5 °F 74% 29.69 in 10.0 mi WSW 9.2 mph - N/A   Overcast
9:35 AM 45.1 °F 40.3 °F 37.0 °F 73% 29.69 in 10.0 mi WSW 9.2 mph 16.1 mph N/A   Mostly Cloudy
9:54 AM 45.7 °F 40.2 °F 37.4 °F 73% 29.69 in 10.0 mi WSW 11.5 mph - N/A   Mostly Cloudy
10:15 AM 48.2 °F - 38.8 °F 70% 29.69 in 10.0 mi WSW 12.7 mph 18.4 mph N/A   Mostly Cloudy
10:35 AM 49.3 °F - 38.3 °F 66% 29.69 in 10.0 mi West 12.7 mph 24.2 mph N/A   Scattered Clouds
10:54 AM 50.5 °F - 38.1 °F 62% 29.68 in 10.0 mi West 16.1 mph 26.5 mph N/A   Clear
11:15 AM 50.0 °F - 38.1 °F 64% 29.69 in 10.0 mi WNW 11.5 mph 20.7 mph N/A   Mostly Cloudy
11:35 AM 51.1 °F - 38.5 °F 62% 29.69 in 10.0 mi West 9.2 mph 23.0 mph N/A   Mostly Cloudy
11:54 AM 52.0 °F - 38.8 °F 61% 29.69 in 10.0 mi WNW 15.0 mph 21.9 mph N/A   Mostly Cloudy
12:15 PM 44.2 °F 40.3 °F 38.8 °F 81% 29.72 in 10.0 mi NNW 6.9 mph - N/A   Overcast
12:35 PM 47.8 °F - 39.2 °F 72% 29.72 in 10.0 mi NW 9.2 mph 18.4 mph N/A   Overcast
12:54 PM 49.5 °F - 38.7 °F 66% 29.72 in 10.0 mi NNW 10.4 mph 17.3 mph N/A   Overcast
1:15 PM 47.3 °F - 39.0 °F 73% 29.73 in 10.0 mi North 11.5 mph - N/A   Overcast
1:34 PM 48.7 °F - 39.0 °F 69% 29.73 in 10.0 mi North 19.6 mph 25.3 mph N/A   Mostly Cloudy
1:55 PM 46.8 °F - 36.7 °F 68% 29.75 in 10.0 mi NNW 25.3 mph 35.7 mph N/A   Overcast
2:15 PM 44.8 °F 39.4 °F 37.0 °F 74% 29.76 in 10.0 mi NNW 10.4 mph 16.1 mph N/A   Overcast
2:34 PM 47.5 °F - 36.5 °F 66% 29.77 in 10.0 mi NNW 8.1 mph 18.4 mph N/A   Overcast
2:55 PM 47.3 °F - 34.7 °F 62% 29.77 in 10.0 mi NW 16.1 mph 27.6 mph N/A   Overcast
3:15 PM 45.0 °F 38.5 °F 34.7 °F 67% 29.79 in 10.0 mi NW 13.8 mph 23.0 mph N/A   Overcast
3:34 PM 46.4 °F 40.7 °F 33.8 °F 62% 29.80 in 10.0 mi NW 12.7 mph 19.6 mph N/A   Overcast
3:55 PM 46.2 °F 39.5 °F 32.2 °F 58% 29.81 in 10.0 mi NW 16.1 mph 23.0 mph N/A   Overcast
4:15 PM 45.3 °F 39.3 °F 32.0 °F 60% 29.82 in 10.0 mi NW 12.7 mph 26.5 mph N/A   Overcast
4:34 PM 44.8 °F 40.4 °F 32.9 °F 63% 29.83 in 10.0 mi NW 8.1 mph 19.6 mph N/A   Overcast
4:55 PM 43.9 °F 37.2 °F 33.8 °F 68% 29.84 in 10.0 mi NNW 13.8 mph 24.2 mph N/A   Overcast
5:15 PM 44.1 °F 37.7 °F 34.2 °F 68% 29.85 in 10.0 mi NW 12.7 mph 20.7 mph N/A   Mostly Cloudy
5:34 PM 42.8 °F 38.6 °F 33.6 °F 70% 29.85 in 7.0 mi WNW 6.9 mph 24.2 mph N/A   Overcast
5:55 PM 42.1 °F 39.2 °F 32.9 °F 70% 29.86 in 10.0 mi NW 4.6 mph - N/A   Mostly Cloudy
6:15 PM 42.8 °F 37.0 °F 32.5 °F 67% 29.87 in 10.0 mi NW 10.4 mph - N/A   Scattered Clouds
6:34 PM 42.8 °F 38.6 °F 32.0 °F 66% 29.87 in 10.0 mi WNW 6.9 mph - N/A   Mostly Cloudy
6:55 PM 43.2 °F 38.4 °F 32.2 °F 65% 29.89 in 10.0 mi NW 8.1 mph - N/A   Overcast
7:15 PM 41.9 °F 36.9 °F 33.8 °F 73% 29.90 in 10.0 mi NNW 8.1 mph 17.3 mph N/A   Overcast
7:34 PM 41.9 °F 36.3 °F 33.8 °F 73% 29.92 in 10.0 mi NW 9.2 mph 16.1 mph N/A   Overcast
7:55 PM 41.4 °F 37.6 °F 33.1 °F 72% 29.92 in 10.0 mi NW 5.8 mph 17.3 mph N/A   Overcast
8:15 PM 41.5 °F 37.1 °F 33.1 °F 72% 29.93 in 10.0 mi NW 6.9 mph - N/A   Overcast
8:34 PM 41.2 °F 38.2 °F 32.9 °F 72% 29.94 in 10.0 mi NW 4.6 mph - N/A   Overcast
8:55 PM 40.3 °F 34.9 °F 32.5 °F 74% 29.94 in 10.0 mi NW 8.1 mph - N/A   Mostly Cloudy
9:15 PM 40.3 °F 37.1 °F 32.4 °F 73% 29.95 in 10.0 mi NW 4.6 mph - N/A   Mostly Cloudy
9:34 PM 40.1 °F 38.0 °F 32.2 °F 73% 29.95 in 10.0 mi NW 3.5 mph - N/A   Mostly Cloudy
9:55 PM 39.7 °F 37.6 °F 32.2 °F 74% 29.96 in 10.0 mi NW 3.5 mph - N/A   Mostly Cloudy
10:15 PM 39.7 °F - 32.7 °F 76% 29.97 in 10.0 mi Calm Calm - N/A   Overcast
10:34 PM 39.9 °F - 32.5 °F 75% 29.97 in 10.0 mi Calm Calm - N/A   Overcast
10:55 PM 39.9 °F - 32.5 °F 75% 29.98 in 10.0 mi Calm Calm - N/A   Overcast
11:15 PM 39.6 °F - 32.5 °F 76% 29.98 in 10.0 mi Calm Calm - N/A   Overcast
11:34 PM 39.2 °F - 33.1 °F 79% 29.98 in 10.0 mi Calm Calm - N/A   Overcast
11:55 PM 38.8 °F 36.5 °F 33.3 °F 80% 29.99 in 10.0 mi North 3.5 mph - N/A   Overcast